Location: Unspecified
(45.4615°N, 74.0512°W)
Time: 16:20:56
(UTC-05:00)

ISS - Visible Passes

Search period start: 21 February 2018 00:00
Search period end: 03 March 2018 00:00
Orbit: 403 x 407 km, 51.6° (Epoch: 22 February)

Date Brightness Start Highest point End Pass type
(mag) Time Alt. Az. Time Alt. Az. Time Alt. Az.
25 Feb -0.8 05:52:27 10° S 05:54:21 15° SE 05:56:14 10° E visible
27 Feb -2.0 05:43:07 10° SSW 05:46:03 30° SE 05:48:58 10° ENE visible
28 Feb -1.3 04:51:52 11° S 04:53:56 18° SE 04:56:14 10° E visible
01 Mar -3.5 05:34:50 12° SW 05:37:49 66° SSE 05:41:04 10° ENE visible
02 Mar -2.7 04:44:56 33° S 04:45:36 37° SE 04:48:39 10° ENE visible
